Regional Weather Roundup
Issued by NWS Pendleton, OR

Home | Current Version | Previous Version | Text Only | Print | Product List | Glossary On
Versions: 1 2 3 4 5 6 7 8 9 10 11 12 13 14 15 16 17 18 19 20 21 22 23 24 25 26 27 28 29 30 31 32 33 34 35 36 37 38 39 40 41 42 43 44 45 46 47 48 49 50
000
ASUS46 KPDT 300025
RWRPDT
PENDLETON REGIONAL WEATHER ROUNDUP
NATIONAL WEATHER SERVICE PENDLETON OREGON
400 PM PST THU JAN 29 2015

NOTE: FAIR INDICATES FEW OR NO CLOUDS BELOW 12,000 FEET WITH NO
SIGNIFICANT WEATHER AND/OR OBSTRUCTIONS TO VISIBILITY.

# INDICATES UNOFFICIAL STATION AND DATA

WAZ520-300110-
EAST SLOPES OF WASHINGTON CASCADES

CITY            SKY/WX      TMP DP  RH  WIND    PRES   REMARKS
#BUMPING DAM    N/A         42  N/A N/A NW1     N/A
#CLE ELUM LAKE  N/A         30  29  96  CALM    30.41S
#CLIFFDEL 2NW   N/A         46  35  65  CALM    N/A
#GLENWOOD       N/A         36  34  92  CALM    30.40
#MANASTASH CYN  N/A         31  27  85  CALM    30.29S
#NELSON         N/A         32  30  92  CALM    30.46
#NELSON 3SW     N/A         29  28  96  CALM    30.65
#NILE           N/A         33  32  96  NE2     29.67S
#RONALD 2NW     N/A         33  24  69  CALM    30.19R
#SNOWDEN        N/A         33  30  89  CALM    N/A
#TEANAWAY 4NE   N/A         33  32  96  CALM    N/A
#TROUT LAKE 1NE N/A         36  34  92  CALM    30.40
$$

WAZ521-300110-
SIMCOE HIGHLANDS

CITY            SKY/WX      TMP DP  RH  WIND    PRES   REMARKS
#BICKLETON HS   N/A         33  33  100 CALM    N/A
#CENTERVILLE 4W N/A         36  34  92  SE5     30.09F
#GOLDENDALE     N/A         36  35  96  E3      N/A
#GOLDENDALE 1S  N/A         33  33  100 W3      30.32
#GOLDENDALE 5WNWN/A         36  33  89  E1      30.41S
#GOODNOE HILLS  N/A         36  32  85  E8      N/A
#LYLE 6NE       N/A         36  35  96  E2      30.40
$$

WAZ026-300110-
KITTITAS VALLEY

CITY            SKY/WX      TMP DP  RH  WIND    PRES   REMARKS
ELLENSBURG AP   CLOUDY      37  32  82  S3      30.38
6HR MIN TEMP:   33; 6HR MAX TEMP:   38;

#KITTITAS 4N    N/A         37  33  85  S1      28.67S
#KITTITAS 3S    N/A         35  33  92  NW1     30.43
#THORP 6N       N/A         30  29  96  E2      30.47
$$

WAZ027-300110-
YAKIMA VALLEY

CITY            SKY/WX      TMP DP  RH  WIND    PRES   REMARKS
YAKIMA AIRPORT  CLOUDY      38  33  82  SW3     30.42
6HR MIN TEMP:   36; 6HR MAX TEMP:   39;

#DONALD 2NE     N/A         36  31  82  CALM    29.26S
#GRANDVIEW      N/A         36  34  92  CALM    30.48
#MABTON         N/A         37  35  92  CALM    30.43
#MOXEE 2E       N/A         38  33  82  S3      30.37R
#NACHES 2SW     N/A         35  34  96  CALM    30.37S
#OUTLOOK DOT    N/A         N/A N/A N/A SW2     N/A
#SELAH 8E       N/A         35  35  100 NE6     N/A
#TERRACE HTS    N/A         36  34  92  CALM    30.43
#WAPATO 4NE     N/A         36  31  82  CALM    29.26S
#W YAKIMA       N/A         36  34  92  CALM    30.46S
#WHITE SWAN 5E  N/A         36  34  92  CALM    30.47
#WILEY CITY 3W  N/A         34  28  78  CALM    30.42
$$

WAZ028-300110-
LOWER COLUMBIA BASIN...WASHINGTON

CITY            SKY/WX      TMP DP  RH  WIND    PRES   REMARKS
PASCO           CLOUDY      40  37  89  N5      30.45
6HR MIN TEMP:   39; 6HR MAX TEMP:   41;

PROSSER AWOS    N/A         37  37  100 W3      30.47
#BASIN CITY 5SW N/A         39  37  92  W2      30.44
#BENTON CITY    N/A         37  35  92  W6      30.37S
#CONNELL 5N     N/A         37  36  96  CALM    30.45S
#PATERSON       N/A         40  37  89  CALM    30.44
#PROSSER        N/A         36  34  92  W1      30.46
#SAGEMOOR 2W    N/A         38  36  92  NW1     30.30
#TOUCHET 2S     N/A         38  37  96  CALM    30.44
#WEST PASCO     N/A         41  37  86  CALM    30.44S
$$

WAZ029-300110-
FOOTHILLS OF THE BLUES...WASHINGTON

CITY            SKY/WX      TMP DP  RH  WIND    PRES   REMARKS
WALLA WALLA AP  CLOUDY      36  34  92  NW5     30.41S FOG
#DAYTON SCHOOL  N/A         38  32  79  CALM    30.38
#PLEASANT VIEW 1N/A         34  33  96  CALM    30.49
#PRESCOTT       N/A         37  36  96  CALM    30.45
#WHITMAN COLLEGEN/A         36  34  92  S1      30.51
#WAITSBURG 5S   N/A         34  34  100 CALM    30.55
#WAITSBURG 8N   N/A         34  28  78  S3      30.21F
#WALLA WALLA 5E N/A         36  35  96  NW1     N/A
#WALLA WALLA U  N/A         38  35  89  E1      30.45
#WHITMAN MISSIONN/A         38  36  92  CALM    30.47
$$

WAZ030-300110-
BLUE MOUNTAINS...WASHINGTON

CITY            SKY/WX      TMP DP  RH  WIND    PRES   REMARKS
#DIXIE 5SE      N/A         33  33  100 CALM    30.26
#SKI BLUEWOOD   N/A         41  32  70  S1      30.27
$$

ORZ009-041-WAZ024-300110-
COLUMBIA RIVER GORGE

CITY            SKY/WX      TMP DP  RH  WIND    PRES   REMARKS
HOOD RIVER AP   CLOUDY      41  36  82  E5      30.41
THE DALLES AP   CLOUDY      43  36  76  E9      30.42
6HR MIN TEMP:   41; 6HR MAX TEMP:   44;

#ARLINGTON AIRPON/A         38  36  92  E3      30.02
#ARLINGTON HS   N/A         40  36  85  CALM    30.36S
#LYLE           N/A         43  37  79  SE6     30.44
#MOSIER 1S      N/A         41  30  65  CALM    30.41S
#MURDOCK        N/A         44  39  82  E9      30.45S

$$

ORZ510-300110-
NORTH CENTRAL OREGON

CITY            SKY/WX      TMP DP  RH  WIND    PRES   REMARKS
#DUFUR 9E       N/A         32  32  100 E5      30.48
#GRASS VALLEY 1SN/A         34  33  96  E2      30.44
#MAUPIN SCHOOL  N/A         42  36  79  N2      30.39S
#MORO SCHOOL    N/A         34  34  100 NE5     30.36
#TYGH VALLEY 2NEN/A         41  37  86  CALM    30.40
#WAPANITIA AIRPON/A         38  35  89  CALM    30.42
#WASCO AIRPORT  N/A         36  33  89  E12     N/A    WCI 28
#WASCO 5NE      N/A         34  33  96  E1      30.44
$$

ORZ511-300110-
CENTRAL OREGON

CITY            SKY/WX      TMP DP  RH  WIND    PRES   REMARKS
BEND AIRPORT    CLOUDY      39  37  92  N6      30.29S
MADRAS AIRPORT  N/A         39  36  89  CALM    30.34
PRINEVILLE AP   CLOUDY      39  39  100 SW6     30.29S
#BEND 1SW       N/A         41  38  89  CALM    N/A
#BEND-AWBREY    N/A         40  39  96  NW3     30.32S
#BEND-KIM LN    N/A         42  38  86  CALM    30.24
#CROOKED RVR RANN/A         39  37  92  NE3     30.34S
#CULVER         N/A         39  36  89  CALM    30.27
#LAKE BILLY CHINN/A         40  29  64  NE3     30.37S
#POWELL BUTTE 3EN/A         41  38  89  W5      N/A
#POWELL BUTTE   N/A         40  36  85  N2      29.89R
#PRINEVILLE 3N  N/A         41  38  89  W7      30.29S
#WARM SPRINGS   N/A         44  38  79  CALM    30.30

$$


ORZ509-300110-
EAST SLOPES OF OREGON CASCADES

CITY            SKY/WX      TMP DP  RH  WIND    PRES   REMARKS
#CAMP SHERMAN   N/A         45  38  76  CALM    30.38
#MT BACHELOR-MIDN/A         37  27  67  E1      N/A
#SISTERS AIRPOR N/A         40  40  100 CALM    30.17S
#SISTERS 1NW    N/A         41  36  82  N6      N/A
#SISTERS 3N     N/A         42  35  76  E2      30.28S
#SUNRIVER       N/A         41  38  89  N2      30.21S
#TUMALO 3W      N/A         38  37  96  E2      30.21S

$$

ORZ044-300110-
LOWER COLUMBIA BASIN...OREGON

CITY            SKY/WX      TMP DP  RH  WIND    PRES   REMARKS
HERMISTON       CLOUDY      39  35  85  N3      30.43
6HR MIN TEMP:   37; 6HR MAX TEMP:   40;

#BOARDMAN SCHOOLN/A         40  36  85  CALM    30.45S
#BOARDMAN 8SW   N/A         39  38  96  N3      30.44S
#ECHO 8SW       N/A         39  39  100 CALM    30.40
#IRRIGON 4NW    N/A         41  40  96  CALM    N/A
#UMATILLA SCHOOLN/A         38  37  96  CALM    30.47
#UMATILLA       N/A         41  34  76  CALM    30.41F
$$

ORZ507-300110-
NORTHERN FOOTHILLS OF THE BLUES

CITY            SKY/WX      TMP DP  RH  WIND    PRES   REMARKS
PENDLETON AIRPT CLOUDY      35  33  92  S5      30.38
6HR MIN TEMP:   34; 6HR MAX TEMP:   36;

#ADAMS 3WNW     N/A         35  33  92  CALM    30.45
#ATHENA         N/A         34  33  96  CALM    30.47
#CAYUSE         N/A         35  33  92  S1      30.44
#HELIX SCHOOL   N/A         34  33  96  CALM    30.44
#HELIX 3N       N/A         33  32  96  N1      30.32
#HOLDMAN 5SE    N/A         36  35  96  CALM    30.38S
#HOLDMAN 6E     N/A         34  33  96  CALM    30.25
#M-F FERNDALE   N/A         37  35  92  CALM    30.40
#M-F GROVE ELEM N/A         36  31  82  CALM    30.39
#M-FREEWATER 5SEN/A         36  33  89  CALM    30.38
#PDT AQUATIC CTRN/A         38  35  89  CALM    30.37
#PENDLETON 5NE  N/A         36  34  92  CALM    30.34S
#PDT SUNRIDGE   N/A         36  33  89  CALM    30.41
#PENDLETON 7NW  N/A         38  33  82  CALM    26.47
#TUTUILLA       N/A         36  32  85  CALM    30.42
#UMAPINE 2E     N/A         38  36  92  CALM    30.40
#WESTON SCHOOL  N/A         33  31  92  CALM    30.35

$$

ORZ508-300110-
SOUTHERN FOOTHILLS OF THE BLUES

CITY            SKY/WX      TMP DP  RH  WIND    PRES   REMARKS
LEXINGTON       CLOUDY      36  36  100 N8      30.39S FOG
#AJAX           N/A         34  29  82  VRB3    30.26
#CONDON SCHOOL  N/A         33  32  96  CALM    30.25F
#CONDON 5W      N/A         32  31  96  E3      30.27S
#LEXINGTON 2SE  N/A         38  34  85  CALM    30.36
#MIKKALO        N/A         36  36  100 E3      30.37
#RUGGS 5NE      N/A         34  28  78  W2      30.49
#RUGGS 2SW      N/A         33  32  96  CALM    30.44S

$$

ORZ502-503-300110-
BLUE MOUNTAINS

CITY            SKY/WX      TMP DP  RH  WIND    PRES   REMARKS
MEACHAM         PTCLDY      43  31  62  CALM    30.29
6HR MIN TEMP:   38; 6HR MAX TEMP:   46;

#HARDMAN 10S    N/A         43  36  76  CALM    30.44
#HEPPNER 15SE   N/A         38  36  92  CALM    30.18S
#PIKES PEAK     N/A         31  29  92  N2      27.99
#TOLLGATE       N/A         37  31  79  NE1     30.18
#TROY SCHOOL    N/A         49  38  66  CALM    30.23
#UKIAH          N/A         51  37  59  CALM    30.40
#WESTON 4E      N/A         32  31  96  CALM    30.34
$$

ORZ505-300110-
JOHN DAY BASIN

CITY            SKY/WX      TMP DP  RH  WIND    PRES   REMARKS
JOHN DAY        CLEAR       47  33  58  E10     30.27S
#JOHN DAY KJDY  N/A         49  49  100 NE5     30.32
#DAYVILLE SCHOOLN/A         52  37  56  NW2     30.21
#MITCHELL       N/A         38  38  100 CALM    30.42
#MONUMENT HS    N/A         53  35  50  CALM    30.26S
#MT. VERNON 5SE N/A         47  35  63  CALM    30.22
#WINLOCK        N/A         45  37  73  W6      30.34
$$

ORZ506-300110-
OCHOCO AND JOHN DAY HIGHLANDS

CITY            SKY/WX      TMP DP  RH  WIND    PRES   REMARKS
#PAULINA SCHOOL N/A         51  36  56  CALM    30.20
#PRAIRIE CITY   N/A         44  30  58  N5      30.34R
#SENECA         N/A         42  N/A N/A SE2     N/A
$$

ORZ049-300110-
GRANDE RONDE VALLEY

CITY            SKY/WX      TMP DP  RH  WIND    PRES   REMARKS
LA GRANDE       PTCLDY      45  28  51  S12     30.31F WCI 39
#COVE           N/A         45  39  79  SE6     30.03
#COVE 6NW       N/A         44  33  65  S5      30.46
#ELGIN 3N       N/A         45  28  51  S13     30.11S WCI 39
#ELGIN 1E       N/A         46  34  63  CALM    N/A
#IMBLER SCHOOL  N/A         43  33  67  SE2     30.26S
#UNION 1S       N/A         47  34  60  S8      30.33
$$

ORZ050-300110-
WALLOWA COUNTY

CITY            SKY/WX      TMP DP  RH  WIND    PRES   REMARKS
#ENTERPRISE AP  N/A         43  29  57  CALM    30.22
#ENTERPRISE HS  N/A         43  33  67  CALM    30.29
#IMNAHA SCHOOL  N/A         46  33  60  N7      30.31
#IMNAHA 10S     N/A         49  33  54  SE1     30.28
#JOSEPH 3N      N/A         39  35  85  CALM    30.32S
#JOSEPH 3W      N/A         33  23  66  CALM    30.11S
#LOSTINE        N/A         40  30  67  CALM    30.24S
#MT HOWARD 8000 N/A         32  -20  9  CALM    30.27S
#PROMISE 1S     N/A         41  33  73  CALM    30.51S
#SHEEP RDG 7000 N/A         32   3  28  CALM    30.35S
#WALLOWA SCHOOL N/A         42  31  65  CALM    31.41S



$$



USA.gov is the U.S. government's official web portal to all federal, state and local government web resources and services.